Location: Austin
(30.3000°N, 97.7500°W)
Time: 22:18:49
(UTC-06:00)

CZ-3 R/B - Pass Details

Date: 03 December 2025
Orbit: 547 x 10009 km, 28.3° (Epoch: 07 December)

Event Time Altitude Azimuth Distance (km) Brightness Sun altitude
Exits shadow 04:26:43 51° 267° (W) 4,022 4.1 -34.9°
Maximum altitude 04:33:11 80° 191° (S) 2,484 3.3 -33.5°
Drops below altitude 10° 04:41:37 10° 105° (ESE) 3,298 5.1 -31.7°
Sets 04:43:27 0° 103° (ESE) 3,895 5.8 -31.3°
